Location: Antioch Baptist Church
(32.6696°N, 85.7327°W)
Time: 20:58:54
(UTC+00:00)

Milstar 3 - Pass Details

Date: 14 July 2020
Orbit: 1101 x 5144 km, 28.2° (Epoch: 13 July)

Event Time Altitude Azimuth Distance (km) Brightness Sun altitude
Rises 01:34:07 0° 271° (W) 4,426 7.0 -8.5°
Reaches altitude 10° 01:36:32 10° 268° (W) 3,678 6.4 -8.9°
Maximum altitude 01:46:00 67° 188° (S) 2,350 4.3 -10.6°
Enters shadow 02:03:26 13° 111° (ESE) 6,461 6.1 -13.6°
